Eau Claire, WI

9:10 PM CST on January 18, 2017 (GMT -0600)
Chippewa Valley Regional

Weather History for KEAU - January, 2014

Change the Weather History Date:

Wednesday, January 29, 2014

  Actual Average Record
Temperature  
Mean Temperature 10 °F 15 °F  
Max Temperature 30 °F 24 °F 45 °F (1927)
Min Temperature -11 °F 6 °F -34 °F (1951)
Degree Days  
Heating Degree Days 55 50  
Month to date heating degree days 1711 1470  
Since 1 July heating degree days 5121 4646  
Cooling Degree Days 0 0  
Month to date cooling degree days 0 0  
Year to date cooling degree days 0 0  
Moisture  
Dew Point -2 °F    
Average Humidity 66    
Maximum Humidity 86    
Minimum Humidity 45    
Precipitation  
Precipitation 0.00 in 0.03 in 0.52 in (1987)
Month to date precipitation 1.27 0.83  
Year to date precipitation 1.27 0.83  
Snow  
Snow 0.00 in 0.40 in 6.30 in (1987)
Month to date snowfall 19.3 12.4  
Since 1 July snowfall 40.5 28.2  
Snow Depth 14.00 in    
Sea Level Pressure  
Sea Level Pressure 29.93 in    
Wind  
Wind Speed 10 mph (SSW)    
Max Wind Speed 21 mph    
Max Gust Speed 26 mph    
Visibility 10 miles    
Events      
T = Trace of Precipitation, MM = Missing Value Source: NWS Daily Summary

Daily Weather History Graph

Daily Weather History Graph

Search for Another Location

Airport or City:

Trip Planner

Search our weather history database for the weather conditions in past years. The results will help you decide how hot, cold, wet, or windy it might be!

Date:

Astronomy

Jan. 29, 2014 Rise Set
Actual Time 7:28 AM CST 5:10 PM CST
Civil Twilight 6:57 AM CST 5:41 PM CST
Nautical Twilight 6:21 AM CST 6:16 PM CST
Astronomical Twilight 5:47 AM CST 6:51 PM CST
Moon 6:06 AM CST (1/29) 4:10 PM CST (1/29)
Length of Visible Light 10h 44m
Length of Day
9h 41m
Waning Crescent, 2% of the Moon is Illuminated
Jan 29
Waning Crescent
Jan 30
New
Feb 6
First Quarter
Feb 14
Full
Feb 22
Last Quarter

Hourly Weather History & Observations

Time (CST) Temp. Windchill Dew Point Humidity Pressure Visibility Wind Dir Wind Speed Gust Speed Precip Events Conditions
12:56 AM -7.1 °F -22.8 °F -14.1 °F 72% 30.14 in 10.0 mi SW 8.1 mph - N/A   Clear
1:56 AM -7.1 °F -22.8 °F -14.1 °F 72% 30.13 in 10.0 mi SW 8.1 mph - N/A   Clear
2:56 AM -7.1 °F -23.9 °F -14.1 °F 72% 30.12 in 10.0 mi SW 9.2 mph - N/A   Clear
3:56 AM -6.0 °F -20.1 °F -14.1 °F 68% 30.12 in 10.0 mi SW 6.9 mph - N/A   Clear
4:56 AM -7.1 °F -22.8 °F -14.1 °F 72% 30.11 in 10.0 mi SW 8.1 mph - N/A   Clear
5:56 AM -8.0 °F -23.9 °F -14.1 °F 75% 30.09 in 10.0 mi SW 8.1 mph - N/A   Clear
6:56 AM -8.0 °F - -14.1 °F 75% 30.09 in 10.0 mi Calm Calm - N/A   Clear
7:56 AM -11.0 °F -24.6 °F -15.0 °F 83% 30.08 in 10.0 mi South 5.8 mph - N/A   Clear
8:56 AM -7.1 °F -19.9 °F -11.9 °F 79% 30.08 in 10.0 mi South 5.8 mph - N/A   Clear
9:56 AM 1.0 °F -12.9 °F -8.0 °F 66% 30.06 in 10.0 mi SSW 8.1 mph - N/A   Clear
10:56 AM 6.1 °F -8.7 °F -5.1 °F 60% 30.04 in 10.0 mi SSW 10.4 mph - N/A   Clear
11:56 AM 12.0 °F -1.3 °F -2.0 °F 53% 30.00 in 10.0 mi South 10.4 mph - 0.00 in   Clear
12:56 PM 15.1 °F 1.1 °F -0.0 °F 51% 29.96 in 10.0 mi South 12.7 mph - N/A   Clear
1:56 PM 18.0 °F 4.2 °F 1.0 °F 48% 29.90 in 10.0 mi South 13.8 mph - N/A   Clear
2:56 PM 19.9 °F 6.7 °F 1.9 °F 46% 29.85 in 10.0 mi South 13.8 mph - N/A   Clear
3:56 PM 19.9 °F 7.9 °F 3.0 °F 48% 29.82 in 10.0 mi SSE 11.5 mph - N/A   Clear
4:56 PM 19.0 °F 6.1 °F 3.0 °F 50% 29.80 in 10.0 mi South 12.7 mph - N/A   Clear
5:56 PM 19.9 °F 8.6 °F 5.0 °F 52% 29.77 in 10.0 mi South 10.4 mph - N/A   Scattered Clouds
6:56 PM 19.9 °F 9.3 °F 6.1 °F 55% 29.75 in 10.0 mi South 9.2 mph - N/A   Clear
7:56 PM 21.9 °F 10.4 °F 9.0 °F 58% 29.72 in 10.0 mi South 11.5 mph - N/A   Clear
8:56 PM 25.0 °F 13.6 °F 10.9 °F 55% 29.68 in 10.0 mi South 12.7 mph - N/A   Clear
9:56 PM 28.9 °F 17.3 °F 12.9 °F 51% 29.66 in 10.0 mi SSW 16.1 mph 23.0 mph N/A   Clear
10:56 PM 28.9 °F 18.6 °F 14.0 °F 54% 29.65 in 10.0 mi SSW 12.7 mph - N/A   Clear
11:56 PM 28.9 °F 18.2 °F 15.1 °F 56% 29.63 in 10.0 mi SSW 13.8 mph - N/A   Clear